Location: Santa Tecla
(40.6833°N, 14.9167°E)
Time: 06:19:32
(UTC+00:00)

Daily predictions for brighter satellites

Satellite Brightness Start Highest point End
(mag) Time Altitude Azimuth Time Altitude Azimuth Time Altitude Azimuth
COSMO-SKYMED 1 2.7 17:11:01 10° NNE 17:15:24 86° WNW 17:19:43 10° SSW
CZ-4B R/B 3.0 17:18:56 10° ENE 17:20:38 14° E 17:22:22 10° SE
Cosmos 1346 Rocket 4.5 17:20:05 10° NNE 17:22:38 16° ENE 17:25:11 10° ESE
Cosmos 1733 Rocket 3.6 17:20:25 10° SSW 17:24:41 64° W 17:29:00 10° N
Cosmos 1842 3.7 17:20:49 10° NNW 17:24:44 67° W 17:28:36 10° S
ARGOS 3.1 17:19:27 10° SSE 17:24:45 69° ENE 17:30:06 10° N
COSMOS 2455 2.9 17:19:00 10° NNW 17:24:59 61° ENE 17:30:56 10° SE
CENTAUR R/B 4.0 17:25:41 10° ESE 17:27:20 11° E 17:29:02 10° E
USA 215 4.2 17:21:56 10° E 17:27:39 33° NNE 17:33:22 10° NW
Cosmos 2154 Rocket 4.4 17:22:24 10° SSE 17:28:17 42° E 17:34:12 10° NNE
Cosmos 2082 Rocket 3.2 17:23:50 10° NNW 17:29:21 51° WSW 17:34:49 10° S
ATLAS 3B CENTAUR R/B 3.4 17:30:28 10° SW 17:32:13 12° SSW 17:33:39 10° SSE
Cosmos 1943 Rocket 2.3 17:28:24 10° SSW 17:33:57 86° WNW 17:39:37 10° NNE
H-2A R/B 2.1 17:30:03 10° NNE 17:34:07 50° E 17:38:06 10° S
CZ-3B R/B 3.3 17:25:09 10° NW 17:34:25 55° SW 17:37:35 10° SSE
Cosmos 1782 Rocket 4.4 17:31:24 10° SSE 17:35:14 29° E 17:39:05 10° NNE
Nadezhda 3 Rocket 4.2 17:38:26 10° N 17:44:21 47° ENE 17:50:15 10° SSE
H-2A R/B 3.2 17:39:45 10° S 17:44:33 46° W 17:49:31 10° NNW
DMSP B5D2-2 4.2 17:39:52 10° NNE 17:45:03 54° E 17:50:12 10° S
SL-08 RB Rocket 3.6 17:41:18 10° SSE 17:45:44 78° ENE 17:50:13 10° N
H-2A R/B 2.9 17:41:21 10° S 17:45:47 75° WSW 17:50:18 10° NNW
CZ-2C R/B 3.2 17:41:05 10° N 17:46:36 67° WNW 17:52:09 10° SSW
GENESIS II 4.2 17:44:12 10° SW 17:48:01 81° NW 17:51:53 10° NNE
HJ-1C 3.3 17:45:09 10° SSE 17:48:22 60° ENE 17:51:36 10° N
Cosmos 2369 Rocket 2.2 17:44:19 10° S 17:49:52 60° ESE 17:55:25 10° NNE
Lacrosse 5 rocket 1.6 17:51:16 10° NW 17:55:47 62° NE 17:58:47 20° ESE
NOSS 3-2 (A) 4.0 17:51:38 10° SSE 17:56:06 27° ESE 18:01:01 10° NE
IRS-1C Rocket 4.0 17:51:05 10° SSE 17:56:17 70° ENE 18:01:31 10° N
OBJECT-B 2.3 17:56:48 19° ENE 17:56:48 19° ENE 17:58:57 10° NNE
ATLAS CENTAUR R/B 1.7 17:51:57 10° NNW 17:56:42 89° WSW 18:01:35 10° SSE
CSL-04 Debris 4.3 17:54:28 10° SE 17:59:41 52° ENE 18:04:54 10° N
Okean-O 2.6 17:57:59 10° SSE 18:02:21 63° ENE 18:06:45 10° N
Cosmos 1184 Rocket 3.5 18:01:21 10° NNE 18:04:13 29° ENE 18:04:21 29° E
Cosmos 1975 Rocket 3.4 18:01:20 10° N 18:05:34 42° ENE 18:08:36 17° SE
Cosmos 2074 Rocket 4.4 17:59:28 10° SSW 18:05:41 66° W 18:11:57 10° N
Cosmos 1461 4.1 18:02:29 10° NW 18:06:12 39° WSW 18:09:49 10° S
Cosmos 1315 Rocket 3.2 18:03:15 10° SSE 18:06:56 38° E 18:10:41 10° NNE
Cosmos 1674 2.5 18:03:26 10° N 18:07:09 70° E 18:10:52 10° SSE
Cosmos 1300 Rocket 4.3 18:05:56 16° SE 18:08:46 30° E 18:12:36 10° NNE
CZ-4 R/B 2.1 18:07:16 10° S 18:11:00 51° W 18:14:46 10° NNW
Cosmos 1805 3.2 18:07:21 10° S 18:11:09 56° E 18:14:57 10° NNE
Cosmos 1400 Rocket 3.9 18:07:43 10° SSW 18:11:41 48° WNW 18:15:37 10° N
Cosmos 1656 Rocket 3.6 18:06:45 10° S 18:12:16 63° ESE 18:17:43 10° NNE
Geosat 4.1 18:07:33 10° NNE 18:12:36 77° WNW 18:17:35 10° SSW
SJ-6B 3.7 18:12:03 29° E 18:12:39 30° ENE 18:16:15 10° N
BREEZE M DEB (TANK) 4.4 18:09:11 10° WNW 18:13:25 70° NNE 18:29:34 20° E
SL-14 R/B 4.2 18:10:07 10° NNE 18:13:30 28° ENE 18:13:30 28° ENE
Resurs 01 Rocket 3.8 18:19:40 11° NE 18:19:40 11° NE 18:20:09 10° NE
ISS -1.1 18:16:42 10° NNW 18:18:20 13° N 18:19:58 10° NNE
Cosmos 1626 2.0 18:15:53 10° N 18:19:32 60° E 18:20:59 33° SSE
Cosmos 2341 Rocket 4.1 18:13:31 10° SSE 18:19:37 53° E 18:25:46 10° NNE
Cosmos 1238 Rocket 4.4 18:13:48 10° SSW 18:20:05 60° W 18:25:39 10° N
Cosmos 1777 Rocket 4.1 18:15:48 10° SSW 18:21:02 78° WNW 18:26:18 10° NNE
Cosmos 2263 4.1 18:18:03 10° SSW 18:23:39 82° ESE 18:29:16 10° NNE
Meteor 1-15 Rocket 4.2 18:19:12 10° S 18:24:36 58° E 18:30:06 10° NNE
MetOp-A 4.1 18:21:59 10° SSE 18:27:20 89° ENE 18:32:44 10° NNW
Cosmos 2218 Rocket 4.3 18:25:02 17° SSE 18:29:22 40° E 18:35:05 10° NNE
USA 186 2.6 18:31:34 35° NNE 18:31:34 35° NNE 18:33:37 10° N
YAOGAN 1 4.4 18:30:27 10° SSW 18:34:18 31° W 18:38:11 10° NNW
Cosmos 1733 3.2 18:31:35 10° S 18:35:21 80° W 18:39:11 10° N
Meteor 2-10 4.4 18:33:34 30° SE 18:35:47 44° E 18:41:00 10° NNE
Cosmos 1766 3.1 18:38:24 38° S 18:39:48 78° E 18:43:43 10° N
SJ 16-02 1.8 18:35:43 10° SSW 18:40:05 61° WNW 18:44:29 10° N
SeaSat 1 2.7 18:39:21 45° E 18:40:10 49° ENE 18:44:55 10° NNW
Helios 1A Rocket 4.1 18:41:50 29° NE 18:41:50 29° NE 18:44:23 10° N
Meteor 2-5 Rocket 3.8 18:37:43 10° N 18:43:07 50° ENE 18:43:56 46° ESE
CSL-04 Rocket 3.9 18:40:21 10° S 18:45:39 69° WSW 18:51:05 10° NNW
Atlas Centaur 2 3.7 18:41:31 10° WSW 18:49:16 41° S 18:52:02 32° SE
CZ-4B R/B 3.7 18:50:09 10° NNW 18:52:42 24° WNW 18:55:16 10° SW
APEX 3.9 18:50:10 10° NNW 18:53:52 47° NNE 18:53:52 47° NNE
Meteor 2-20 4.3 18:52:41 10° N 18:58:48 80° E 19:00:59 42° SSE
Okean 2 Rocket 4.0 19:00:40 37° NNE 19:00:40 37° NNE 19:03:22 10° N
Cosmos 1346 Rocket 4.3 18:55:25 10° NNW 18:59:06 35° W 19:01:36 18° SSW
USA 215 3.1 19:08:32 56° SE 19:10:08 88° NE 19:16:45 10° NW
Sich 1 Rocket 4.2 19:07:46 16° SSW 19:11:14 56° W 19:15:42 10° N
Cosmos 2297 Rocket 4.3 19:12:02 10° NNE 19:13:51 14° NNE 19:13:51 14° NNE
BREEZE-M DEB (TANK) 4.3 18:57:22 10° WNW 19:16:16 87° NNE 19:17:39 61° ESE
CENTAUR R/B 2.2 19:10:50 10° SSW 19:16:28 84° ESE 19:23:17 10° NE
Ariane Rocket 3.4 19:19:29 52° N 19:19:29 52° N 19:23:25 10° N
SL-8 Rocket 4.3 19:13:13 10° SSW 19:19:26 67° W 19:25:45 10° N
Meteor 2-20 Rocket 4.3 19:20:24 10° N 19:26:33 85° W 19:26:53 80° SSW
Cosmos 1025 Rocket 4.3 19:23:25 10° NNW 19:27:22 38° W 19:27:22 38° W
OBJECT-B 3.9 19:29:43 15° WNW 19:29:43 15° WNW 19:30:50 10° NW
Meteor 1-24 Rocket 3.8 19:24:10 10° NNW 19:29:01 71° NW 19:29:01 71° NW
Lacrosse 5 rocket 3.8 19:31:30 10° WNW 19:34:25 18° WSW 19:34:25 18° WSW
USA 238 DEB 3.6 19:30:48 10° SW 19:37:16 80° NW 19:44:06 10° NNE
USA 238 3.5 19:30:56 10° SW 19:37:22 81° NW 19:44:12 10° NNE
Cosmos 2227 Rocket 4.4 19:34:18 10° N 19:35:48 14° NNE 19:35:48 14° NNE
Gbstr 26 Del rocket 4.3 19:31:42 10° SW 19:39:08 88° SE 19:40:08 72° ENE
Cosmos 1727 Rocket 4.1 19:34:48 10° N 19:40:11 66° N 19:40:11 66° N
NOSS 3-2 (A) 4.2 19:41:10 10° WSW 19:46:29 47° NW 19:52:36 10° NNE
Resurs 01 Rocket 4.0 19:57:14 20° NNW 19:57:14 20° NNW 19:58:36 10° NNW
USA 281 4.2 20:16:14 10° NNE 20:20:23 39° N 20:20:23 39° N
